Wetbulb
53.79 54.06 53.63 52.89 51.65 49.93 49.72 47.69 41.04 50.31 51.85 43.14 42.84 38.34 39.01 39.88 41.60 44.17 42.77 43.20 41.25 40.70 43.13 43.30 44.00 44.13 46.31 48.02 49.89 48.77 52.80 51.25 49.00 49.38 52.97 53.71 52.61 51.00 51.22 46.61 46.61 47.97 47.70 48.48
53.51 53.80 53.40 52.56 51.37 50.32 49.55 44.03 44.37 51.00 49.44 36.84 37.32 40.36 39.55 40.65 39.53 39.56 40.20 39.58 43.10 43.17 42.54 40.34 43.54 44.80 47.09 47.31 48.50 48.34 51.25 48.76 46.51 48.94 51.17 52.46 50.52 51.63 51.68 51.43 51.02 49.12 45.55 48.67
53.26 53.32 52.99 52.34 51.34 50.49 49.56 44.60 39.71 45.88 47.02 45.90 38.91 35.92 37.57 37.29 41.25 39.63 40.25 37.97 40.87 40.23 41.50 44.59 41.38 42.86 45.32 46.32 46.78 48.19 49.22 49.95 49.09 46.81 49.26 51.45 49.20 50.42 51.04 50.57 48.62 48.80 49.47 51.06
53.26 53.24 52.97 52.52 51.43 50.26 49.28 46.54 41.18 41.58 37.32 38.53 37.69 36.52 36.95 35.49 34.63 40.20 41.05 37.29 36.64 35.31 36.73 39.62 40.36 42.85 44.16 45.61 46.61 47.39 47.85 46.36 47.66 50.41 48.13 48.08 50.39 50.19 50.58 50.22 51.09 48.79 51.16 51.75
53.45 53.41 53.05 52.82 51.77 50.00 47.69 41.64 39.99 41.66 39.98 38.34 36.79 37.48 35.41 35.72 36.54 36.47 36.65 35.62 35.81 37.27 34.45 35.94 35.57 38.65 42.51 41.96 45.41 45.00 46.73 44.53 45.87 45.48 47.62 47.33 46.39 49.13 50.08 50.85 51.55 51.81 52.14 52.31
53.63 53.61 53.42 53.01 52.02 49.41 45.28 47.56 47.05 43.52 38.21 38.76 34.94 35.71 35.76 36.60 38.76 39.76 39.27 39.03 37.48 36.13 36.85 41.11 43.06 44.21 44.34 44.34 42.86 42.82 42.71 43.45 42.89 42.76 47.55 46.99 44.13 48.41 49.71 50.71 52.36 52.33 49.88 54.04
53.49 53.51 53.51 53.43 52.30 50.64 48.13 47.84 45.43 39.17 34.59 36.45 35.68 36.58 37.80 36.89 37.78 36.93 40.33 41.16 37.88 41.96 45.75 45.39 45.19 44.81 44.47 43.75 43.78 44.99 41.97 42.36 42.95 42.18 45.21 37.38 48.98 54.05 52.94 51.29 52.41 53.61 53.83 55.02
53.22 53.39 53.19 53.29 52.87 51.66 48.57 48.40 44.00 39.85 35.28 37.28 37.10 38.39 37.16 39.04 38.96 37.44 39.43 41.00 43.77 45.87 43.13 39.16 37.59 38.60 39.36 41.03 42.51 43.04 44.41 42.60 40.73 38.96 40.53 45.38 48.18 49.48 49.43 50.12 51.30 54.95 54.29 55.60
53.63 53.35 53.00 53.48 53.06 52.39 49.63 48.03 48.10 43.02 36.29 36.20 39.07 37.09 38.53 35.81 36.29 38.26 40.07 43.45 46.40 44.68 40.84 37.74 32.12 33.11 35.96 36.36 40.26 44.60 43.74 43.52 40.98 40.89 37.41 37.35 47.27 51.71 53.58 53.97 47.12 55.58 57.56 57.49
53.18 52.97 53.23 53.11 53.23 53.08 50.70 47.99 48.78 43.76 36.35 39.76 40.23 37.44 37.36 38.88 37.30 35.86 38.93 39.50 40.37 44.06 38.34 34.67 33.28 33.28 38.35 34.33 35.33 38.49 38.72 39.25 36.62 38.08 37.68 42.76 49.49 52.69 56.58 45.96 51.34 59.21 60.13 60.94
52.84 52.78 52.56 52.97 53.37 53.73 52.13 49.04 48.78 44.33 38.65 40.25 41.75 43.05 39.09 40.08 39.20 35.23 38.71 39.27 41.25 40.57 35.27 35.88 37.57 35.35 39.22 37.02 39.97 39.15 39.11 36.61 36.63 37.81 36.59 34.95 49.08 49.33 48.81 54.09 57.65 58.92 59.55 60.20
52.60 52.49 52.61 53.07 53.17 53.43 53.25 48.57 48.66 48.40 41.67 40.90 45.16 45.33 46.34 45.29 43.84 39.69 39.60 39.05 39.65 43.23 39.04 40.25 36.48 36.17 38.48 37.42 33.73 43.29 36.81 41.39 40.45 40.71 40.41 48.20 50.30 50.65 53.08 54.29 54.13 56.06 58.30 59.62
52.58 52.26 52.90 53.13 53.40 53.28 53.09 49.49 46.96 45.67 41.44 40.76 40.99 42.48 48.79 50.58 49.49 49.34 38.17 40.31 41.56 41.28 44.23 39.31 39.55 34.58 39.05 34.95 36.84 38.92 42.19 45.39 41.79 42.69 45.75 47.47 49.60 51.56 53.35 54.44 54.53 56.21 58.80 59.88
52.27 52.45 52.85 53.13 53.13 53.33 53.04 49.09 47.57 46.51 41.41 35.87 41.05 48.57 45.41 49.29 49.27 47.88 47.51 45.04 44.85 43.90 44.41 39.86 37.58 34.70 42.76 38.12 40.41 40.01 43.10 44.79 42.65 42.95 46.08 47.50 49.19 50.93 51.74 52.72 56.05 56.50 58.52 59.97
52.09 52.50 52.93 53.07 53.08 52.95 52.94 51.33 48.56 49.51 43.23 38.26 40.07 47.34 48.72 47.93 46.99 46.40 46.17 44.67 42.53 39.89 39.25 37.99 36.41 39.94 39.55 41.90 40.89 38.51 43.70 42.18 40.14 39.65 46.68 47.08 48.11 51.12 53.15 52.26 52.38 53.66 54.75 57.42
51.95 52.67 52.87 53.02 52.53 51.94 51.72 46.50 48.93 49.95 48.29 39.86 36.65 46.70 45.86 46.14 45.19 43.85 43.92 44.11 42.57 40.96 38.80 36.90 38.86 42.47 39.17 36.74 35.41 42.94 45.96 47.57 47.81 45.08 48.56 49.16 50.26 51.85 52.47 51.45 52.33 53.64 54.86 57.54
52.30 52.83 53.03 52.51 51.69 52.83 47.96 46.21 48.18 49.89 49.51 40.78 36.52 39.16 45.58 45.37 44.18 42.82 42.59 44.56 43.11 41.18 38.55 36.59 37.46 38.30 39.29 35.62 33.03 40.92 44.08 45.53 47.06 48.02 48.05 46.26 48.83 47.99 51.67 52.31 52.52 53.35 57.44 60.53
52.55 52.60 52.53 51.73 50.58 49.91 48.63 51.19 49.54 50.54 45.58 42.55 36.58 38.04 42.04 45.44 42.09 40.21 43.12 39.65 40.24 39.11 37.01 37.50 36.66 38.72 37.30 32.55 38.66 40.84 41.96 43.71 44.08 45.26 46.04 45.27 47.04 48.23 49.16 51.39 52.97 53.03 55.74 60.29
52.15 52.48 52.19 53.24 49.58 47.46 48.04 50.81 49.61 49.64 44.31 36.58 35.45 34.20 35.11 43.79 42.89 45.39 41.90 40.73 34.51 39.26 35.06 34.78 37.42 34.17 32.56 36.42 37.05 37.33 43.00 42.98 42.06 44.57 45.41 45.14 44.57 46.03 49.36 51.32 51.79 56.36 58.67 58.39
52.60 51.80 52.24 47.40 48.80 51.99 50.28 46.16 41.86 42.10 40.86 38.39 33.11 36.40 34.36 39.62 41.50 41.34 40.97 42.83 37.52 35.60 37.37 40.70 34.18 33.47 38.67 43.18 44.73 46.24 50.89 54.13 47.35 43.59 43.54 46.94 48.36 48.65 48.83 50.93 56.17 56.93 57.00 58.69
53.87 52.75 50.12 49.83 52.12 47.72 46.19 43.06 38.47 37.89 36.19 36.95 37.14 37.90 36.19 43.33 38.17 39.72 41.46 38.36 37.12 36.92 39.67 36.93 34.74 34.13 40.13 43.02 43.18 47.27 48.27 51.72 52.83 52.72 52.84 55.37 53.18 52.34 52.45 55.10 56.57 57.61 57.69 57.50
52.03 50.65 50.65 49.66 49.36 48.65 44.76 42.10 42.46 40.79 40.50 46.48 41.32 43.12 40.51 41.87 44.03 42.01 43.43 39.06 40.34 38.78 46.13 38.31 32.56 38.68 42.82 43.04 43.29 46.02 47.62 48.36 49.35 50.85 53.19 54.76 53.66 53.14 55.84 56.73 57.03 56.91 54.50 54.96
53.95 52.70 49.41 48.38 47.46 38.88 35.28 33.46 37.46 39.07 45.72 48.52 47.58 45.96 48.11 46.80 45.52 46.23 46.05 41.84 40.52 45.62 37.49 32.20 37.22 43.47 44.69 44.31 44.64 45.06 47.63 47.25 47.73 49.08 50.06 49.61 49.53 50.19 50.98 51.52 54.61 54.79 53.81 53.38
52.50 47.87 38.76 43.21 41.20 42.83 41.91 42.78 43.77 47.54 47.18 48.06 49.01 48.70 47.99 49.92 46.27 44.84 40.32 43.33 44.66 37.41 32.56 33.82 40.30 42.69 43.69 46.49 46.79 47.98 46.75 46.79 46.23 46.69 47.85 48.34 47.79 46.82 47.87 48.68 49.45 50.96 52.55 54.62
49.01 48.52 40.21 43.20 46.05 47.05 47.17 48.41 48.04 49.08 49.94 50.53 50.11 50.29 48.79 46.12 44.24 44.39 41.24 39.34 34.38 35.02 33.80 38.12 42.31 43.85 44.94 44.84 45.79 46.25 47.51 47.97 48.40 47.07 46.00 46.41 47.43 46.75 45.99 46.57 47.79 48.65 48.96 50.75
49.89 48.04 46.08 47.19 46.25 45.83 46.67 46.94 46.95 49.73 50.54 54.27 51.92 46.83 44.53 42.34 42.06 38.30 35.07 35.56 33.41 35.51 38.55 42.74 44.02 45.31 45.64 45.58 45.89 46.53 47.10 48.10 48.10 48.85 48.48 47.13 46.23 46.69 46.46 46.77 46.46 46.06 47.08 46.80
47.81 47.03 49.62 48.51 47.72 46.90 47.23 47.83 47.12 50.80 48.50 45.36 46.20 40.00 38.94 44.94 39.53 36.42 38.99 36.26 36.43 38.72 43.30 45.21 45.25 44.42 45.51 46.78 46.13 46.18 46.87 46.58 47.61 48.38 49.50 49.07 48.78 48.35 47.58 46.09 47.23 47.29 46.11 45.92
MSLP
1024.00 1023.47 1022.91 1022.32 1021.56 1020.50 1018.82 1017.23 1014.75 1015.30 1014.48 1012.82 1013.05 1012.69 1013.36 1013.16 1012.00 1011.66 1010.97 1009.81 1008.51 1007.20 1005.20 1003.45 1001.80 1001.20 1001.57 1001.77 1000.38 998.60 997.37 995.64 993.34 992.39 992.92 993.18 993.21 993.27 993.45 992.96 993.15 993.14 992.09 990.70
1024.01 1023.48 1022.84 1022.17 1021.60 1021.07 1019.53 1017.41 1016.36 1015.62 1014.74 1013.76 1014.12 1014.00 1013.79 1013.28 1012.73 1012.66 1012.47 1011.97 1010.10 1008.77 1006.94 1005.27 1003.85 1003.27 1003.81 1003.12 1001.45 1000.33 999.15 996.47 994.31 993.06 992.90 992.97 992.28 992.67 992.96 993.33 992.59 991.81 991.82 991.23
1023.80 1023.28 1022.86 1022.37 1021.80 1021.37 1020.53 1018.16 1016.13 1015.11 1015.37 1015.63 1015.22 1015.28 1014.06 1013.55 1013.25 1013.28 1013.24 1014.01 1012.65 1011.01 1007.93 1006.31 1005.20 1004.39 1004.27 1004.00 1003.20 1002.65 1001.03 997.48 994.87 992.54 992.52 992.76 992.73 992.16 992.66 992.49 991.87 991.34 991.08 991.42
1023.55 1023.17 1022.75 1022.41 1022.00 1021.53 1020.90 1018.68 1017.15 1018.02 1016.22 1016.26 1016.45 1016.35 1015.37 1014.27 1013.71 1013.86 1013.47 1013.91 1014.11 1013.04 1010.21 1007.47 1006.47 1005.59 1005.04 1004.07 1003.93 1002.52 1001.16 998.48 997.74 995.64 995.46 994.87 993.08 992.29 992.22 991.67 991.97 991.24 991.38 991.28
1023.34 1022.97 1022.54 1022.29 1022.04 1021.61 1020.64 1019.36 1018.60 1018.72 1017.98 1017.81 1016.71 1015.71 1015.24 1014.39 1014.24 1014.31 1013.68 1013.54 1014.02 1013.51 1012.35 1011.18 1009.21 1007.94 1006.07 1004.80 1004.39 1003.40 1002.51 1000.15 999.34 997.57 996.79 996.07 994.97 994.03 993.29 992.43 992.04 991.99 992.05 991.65
1023.00 1022.54 1022.09 1021.86 1021.83 1021.84 1021.25 1020.18 1019.94 1019.67 1018.61 1017.42 1017.00 1015.77 1015.50 1015.11 1014.68 1014.10 1013.77 1013.42 1013.02 1012.17 1012.16 1011.20 1009.94 1008.77 1007.67 1006.59 1005.77 1004.68 1003.70 1001.63 1000.45 997.93 996.93 996.21 994.75 993.78 993.63 993.55 993.28 992.99 992.23 992.85
1022.44 1021.88 1021.54 1021.43 1021.26 1021.45 1021.70 1020.78 1020.62 1020.07 1018.50 1017.79 1016.86 1016.22 1015.68 1015.21 1014.81 1014.34 1013.61 1013.25 1012.64 1011.84 1011.54 1010.61 1008.79 1007.48 1006.69 1006.19 1005.66 1005.29 1004.25 1003.08 1001.37 998.89 997.79 996.03 993.50 993.12 993.11 993.49 993.63 993.73 993.74 993.58
1021.71 1021.16 1020.84 1020.55 1020.31 1020.41 1020.79 1020.50 1020.43 1019.87 1018.62 1017.67 1017.17 1016.10 1015.66 1014.91 1014.62 1014.19 1013.20 1012.83 1012.44 1012.22 1011.50 1009.61 1007.44 1005.82 1005.62 1004.80 1004.85 1004.79 1004.81 1003.83 1001.69 1000.10 998.21 995.48 994.02 994.31 994.32 994.05 993.66 993.73 993.69 993.66
1020.85 1020.33 1020.05 1019.72 1019.40 1019.37 1019.66 1019.61 1019.83 1019.66 1018.98 1017.60 1017.25 1016.97 1015.82 1015.14 1014.35 1013.50 1012.58 1012.45 1012.20 1011.92 1011.06 1009.59 1008.09 1005.39 1004.47 1003.90 1003.64 1004.25 1004.36 1004.66 1003.11 1000.55 998.87 996.27 995.21 994.53 995.28 995.34 995.08 994.72 995.10 994.81
1020.01 1019.54 1019.06 1018.69 1018.41 1018.14 1018.39 1018.40 1018.75 1019.08 1018.66 1017.67 1017.33 1016.71 1016.06 1015.49 1014.91 1013.99 1013.24 1012.73 1012.03 1011.86 1010.91 1009.70 1008.51 1006.98 1005.97 1004.65 1003.55 1003.61 1003.86 1003.98 1003.03 1001.58 999.61 997.20 995.94 996.22 996.61 996.33 996.74 996.36 996.28 996.03
1019.24 1018.65 1018.17 1017.81 1017.44 1017.00 1017.00 1016.60 1017.50 1018.17 1018.07 1017.16 1016.68 1015.96 1015.94 1015.14 1014.86 1014.29 1013.69 1013.03 1012.05 1011.55 1011.30 1010.11 1009.07 1008.19 1007.02 1006.12 1004.28 1003.36 1003.26 1003.42 1002.38 1002.07 1000.18 998.31 997.87 997.65 997.46 997.98 997.91 997.73 997.36 997.06
1018.44 1017.85 1017.35 1016.92 1016.53 1016.10 1015.98 1015.96 1016.32 1016.85 1017.45 1016.53 1015.75 1015.24 1014.91 1014.32 1014.14 1014.33 1014.51 1013.32 1012.43 1012.22 1011.63 1011.37 1011.32 1009.75 1008.19 1006.72 1005.07 1004.02 1003.95 1002.92 1001.97 1001.74 999.79 999.56 999.28 998.80 998.58 998.83 998.70 998.35 997.96 997.56
1017.55 1017.02 1016.41 1016.21 1015.65 1015.34 1015.27 1015.17 1015.94 1016.76 1016.64 1015.83 1015.04 1013.17 1012.24 1012.55 1012.87 1013.15 1013.74 1013.58 1013.48 1012.90 1012.38 1012.62 1011.74 1010.72 1009.07 1007.33 1005.68 1004.90 1004.35 1003.74 1002.81 1002.35 1000.92 1000.37 1000.33 999.85 999.72 999.83 999.37 998.81 998.14 997.53
1016.77 1016.10 1015.55 1015.47 1014.86 1014.59 1014.47 1014.77 1015.41 1015.58 1016.10 1015.32 1012.85 1012.07 1012.25 1012.14 1012.20 1012.39 1012.77 1012.99 1013.04 1013.17 1013.12 1013.24 1012.63 1011.71 1009.73 1008.35 1006.83 1005.52 1004.22 1003.32 1002.91 1001.92 1001.40 1001.17 1000.51 1000.49 1000.22 1000.14 1000.18 999.72 999.00 997.85
1015.97 1015.33 1014.81 1014.63 1014.21 1014.12 1014.21 1014.53 1015.07 1015.04 1015.55 1014.82 1013.01 1011.86 1011.11 1011.49 1011.62 1012.01 1012.57 1012.97 1013.23 1013.51 1013.65 1013.48 1012.39 1011.13 1010.60 1009.01 1007.73 1005.53 1005.06 1003.73 1002.84 1001.30 1001.31 1000.57 1000.33 1000.14 999.97 1000.31 1000.40 1000.17 999.50 998.29
1015.30 1014.62 1014.26 1013.93 1013.96 1014.14 1013.80 1013.99 1014.82 1015.20 1015.42 1015.07 1013.47 1011.55 1011.30 1011.57 1012.01 1012.19 1012.31 1012.50 1012.97 1013.49 1013.77 1013.53 1012.71 1011.80 1011.50 1009.60 1006.89 1004.42 1003.74 1003.07 1002.47 1001.77 1001.62 1000.96 1000.63 1000.50 1000.63 1000.64 1000.27 1000.04 999.37 998.59
1014.77 1014.17 1013.69 1013.52 1013.87 1014.06 1014.40 1014.75 1014.95 1015.08 1015.33 1015.11 1014.00 1012.09 1011.14 1011.65 1011.99 1012.36 1012.27 1012.47 1013.07 1013.66 1013.84 1013.49 1012.82 1012.32 1012.06 1009.95 1007.11 1003.43 1003.95 1003.57 1002.53 1001.94 1001.58 1000.87 1001.13 1000.61 1000.83 1000.63 1000.14 999.47 998.60 997.72
1014.46 1014.12 1013.95 1014.10 1014.13 1014.60 1014.74 1015.06 1015.21 1015.24 1015.34 1015.29 1014.43 1012.75 1011.35 1011.90 1011.84 1011.83 1012.30 1012.83 1013.39 1013.65 1013.58 1013.13 1012.31 1011.75 1011.19 1009.01 1005.67 1004.15 1002.78 1001.62 1001.12 1000.95 1001.22 1001.10 1001.48 1001.44 1000.83 1000.35 999.84 999.10 998.18 997.10
1014.24 1014.26 1014.18 1013.92 1014.41 1014.60 1015.20 1015.25 1015.44 1015.53 1015.82 1015.37 1015.00 1014.05 1012.89 1012.33 1011.79 1011.35 1012.04 1012.49 1013.02 1013.35 1013.11 1012.66 1012.11 1011.18 1010.18 1007.74 1005.11 1002.42 1000.30 998.69 998.65 999.56 1000.16 1000.44 1000.65 1000.32 1000.02 999.45 998.97 998.18 997.40 997.73
1014.01 1014.11 1013.21 1013.85 1015.12 1015.16 1015.46 1015.55 1015.51 1015.47 1015.76 1015.80 1015.30 1014.73 1013.72 1013.24 1011.98 1011.40 1011.49 1011.56 1011.91 1011.89 1011.86 1011.60 1011.57 1010.54 1009.16 1006.88 1003.79 1000.47 997.93 996.70 997.75 998.51 998.74 998.78 998.53 998.69 999.01 998.67 997.83 997.48 997.46 997.00
1013.44 1013.09 1013.65 1015.08 1015.30 1015.42 1015.02 1014.76 1015.07 1015.14 1014.90 1014.86 1014.33 1013.98 1013.47 1012.71 1012.38 1011.57 1011.41 1011.35 1011.42 1010.84 1010.69 1011.01 1010.96 1009.84 1008.09 1006.85 1004.26 1001.73 1000.16 998.71 998.11 997.73 997.44 996.92 997.37 998.17 998.05 997.93 997.68 997.45 997.48 996.93
1013.75 1013.87 1014.57 1014.89 1014.74 1014.03 1013.85 1014.36 1014.58 1014.34 1013.69 1013.10 1013.14 1012.65 1012.71 1012.21 1012.04 1011.43 1010.79 1010.57 1010.62 1010.18 1010.46 1010.64 1011.00 1010.87 1009.28 1007.93 1006.01 1003.47 1002.11 1000.80 999.61 998.65 997.85 997.91 998.38 998.55 998.09 998.07 997.35 997.86 998.34 998.02
1013.42 1013.29 1013.52 1013.93 1014.52 1014.58 1015.05 1014.94 1014.61 1013.84 1012.81 1011.98 1011.82 1011.50 1011.23 1011.29 1011.28 1010.41 1009.82 1009.92 1010.24 1010.63 1011.33 1012.27 1012.58 1011.73 1010.36 1008.87 1007.73 1006.25 1004.45 1003.06 1001.73 1000.66 999.60 999.61 999.64 999.68 998.83 999.32 999.28 999.37 1000.17 999.75
1012.20 1012.79 1013.97 1013.97 1014.60 1014.81 1014.80 1014.17 1013.58 1013.00 1012.22 1010.92 1010.34 1010.29 1010.08 1009.88 1010.04 1010.58 1010.51 1010.99 1010.80 1011.91 1013.05 1013.76 1013.35 1012.71 1011.45 1009.93 1008.76 1007.27 1006.31 1005.32 1004.25 1003.39 1002.31 1001.99 1001.97 1001.77 1001.64 1001.98 1002.53 1002.39 1001.87 1001.48
1012.66 1013.15 1014.39 1014.69 1014.91 1014.02 1013.61 1012.89 1011.84 1011.27 1010.89 1010.04 1009.07 1008.96 1009.01 1009.69 1010.21 1011.42 1012.17 1011.94 1013.20 1014.34 1014.94 1014.81 1013.79 1013.31 1012.28 1010.92 1009.61 1008.52 1007.39 1006.63 1006.13 1005.93 1005.29 1004.76 1004.07 1003.82 1004.60 1004.84 1004.47 1004.24 1003.92 1003.40
1013.54 1014.80 1014.72 1014.78 1014.02 1013.51 1012.83 1012.32 1011.44 1010.93 1009.65 1009.32 1009.17 1009.33 1009.70 1010.62 1012.07 1013.30 1014.47 1014.69 1015.26 1015.80 1015.60 1015.07 1014.07 1013.29 1012.64 1011.71 1010.67 1009.81 1009.05 1007.93 1007.45 1007.11 1006.87 1006.78 1006.66 1006.48 1006.56 1006.23 1006.32 1005.99 1005.13 1004.68
1014.72 1015.08 1015.08 1014.75 1014.30 1013.68 1013.07 1012.50 1011.88 1011.02 1010.14 1009.58 1009.90 1011.02 1011.88 1012.00 1012.98 1014.52 1015.67 1016.13 1016.45 1016.28 1015.27 1014.37 1014.44 1013.95 1013.08 1012.29 1011.58 1010.90 1010.22 1009.79 1009.02 1008.35 1008.00 1007.79 1007.93 1007.61 1007.45 1007.36 1007.42 1007.20 1007.43 1007.36
Wind_Speed
18 18 17 17 16 19 9 7 5 9 11 3 4 7 11 11 14 14 13 15 17 15 12 12 4 3 10 10 8 13 11 10 13 25 23 25 27 24 27 15 23 20 16 9
18 18 16 15 15 13 9 7 5 4 11 6 6 9 12 11 10 10 10 10 16 15 15 7 3 2 5 11 11 4 1 14 15 15 19 24 26 27 24 25 16 21 19 5
17 17 16 14 14 11 8 6 5 2 2 0 10 12 10 12 8 4 8 5 12 15 18 12 5 3 3 9 9 11 8 12 21 18 15 17 26 27 29 28 21 17 19 14
16 16 15 13 13 9 7 2 4 5 7 7 11 9 12 12 8 9 9 2 6 9 9 9 13 6 10 4 6 6 9 12 7 15 3 5 11 28 30 30 26 27 18 20
17 15 14 13 10 8 7 6 5 2 9 7 11 7 8 10 11 12 11 9 12 12 8 13 10 12 7 5 5 6 7 3 6 15 11 9 11 14 16 20 27 27 26 23
18 17 15 11 7 3 4 2 5 3 5 9 7 7 8 12 14 8 5 13 16 11 9 12 15 15 15 15 11 9 7 6 8 14 12 11 17 21 20 19 19 18 23 16
19 19 17 14 9 4 4 2 3 4 6 7 9 13 14 13 16 10 16 14 12 12 14 18 18 17 16 14 14 11 8 8 8 7 7 18 12 13 19 24 21 20 19 16
21 21 20 17 15 9 4 3 3 4 4 6 12 13 9 13 8 12 15 13 10 9 14 12 9 9 9 14 16 14 13 10 8 12 13 11 7 4 5 10 13 16 18 16
22 23 22 19 17 13 6 5 5 3 3 6 9 8 14 10 11 13 8 4 7 7 6 7 8 5 5 3 9 11 14 12 10 7 16 17 2 10 11 7 9 2 1 5
24 25 24 23 19 16 8 4 9 3 3 5 10 5 7 4 7 7 8 4 4 4 7 7 7 9 3 8 8 12 12 11 14 13 12 8 13 8 2 14 7 6 7 6
25 26 25 23 21 18 10 4 11 6 4 5 9 15 10 10 8 8 3 8 4 3 6 4 3 6 2 7 11 4 9 10 11 14 17 22 9 11 11 11 10 12 12 12
25 26 24 23 21 19 13 3 7 9 3 4 5 11 18 19 18 9 4 9 4 2 5 1 2 5 5 8 9 10 13 12 9 12 10 10 10 13 14 15 16 17 17 17
25 25 24 22 20 18 11 2 4 3 1 4 9 12 10 13 17 15 8 6 8 8 8 3 4 6 5 7 9 15 17 16 14 17 19 22 17 20 17 16 20 20 19 21
25 25 24 21 18 13 4 3 4 2 3 3 6 5 6 6 9 14 17 15 5 9 4 5 4 4 7 8 12 14 12 11 14 19 21 23 22 22 23 17 13 19 22 22
24 23 23 18 13 1 3 3 4 2 3 3 6 16 2 1 6 13 13 14 13 5 3 5 5 7 7 11 15 19 17 23 18 18 19 17 19 19 16 14 18 19 21 24
22 22 21 14 1 7 3 3 2 4 0 2 3 5 1 1 2 9 11 11 10 8 3 4 5 13 8 6 10 19 20 23 22 21 24 24 22 19 20 21 23 23 22 23
20 19 11 3 11 2 2 4 2 5 2 1 4 4 4 2 3 3 6 8 2 3 2 4 4 4 5 5 15 30 22 25 26 22 19 24 25 21 20 20 24 24 24 20
16 5 12 12 12 8 2 3 6 4 0 1 3 4 3 2 2 4 3 2 3 4 3 3 4 3 4 8 18 23 27 26 24 24 22 23 24 25 27 26 22 22 22 18
5 10 10 5 2 1 3 9 7 2 2 2 2 3 3 5 3 1 4 3 2 3 3 3 3 3 5 18 29 32 29 12 22 19 21 21 22 25 25 24 21 22 16 13
11 6 5 3 3 13 9 1 1 2 2 2 2 2 4 2 2 2 2 1 2 2 2 2 2 4 12 23 28 23 14 11 16 17 18 18 21 17 20 19 21 9 8 14
4 1 3 3 9 1 2 2 3 2 2 2 3 3 4 2 3 3 2 2 2 3 3 3 4 11 22 29 33 25 25 20 6 10 12 9 8 12 13 6 6 5 4 5
5 5 3 3 3 3 5 6 4 3 4 2 4 3 3 3 2 3 0 2 1 6 7 5 6 12 25 24 29 32 27 29 28 24 11 13 9 6 6 8 9 17 15 10
3 2 2 4 5 8 6 8 5 7 7 5 9 8 2 2 4 4 3 8 6 2 5 4 8 17 21 21 17 22 26 27 27 27 25 26 25 24 20 20 18 17 13 11
4 5 8 6 6 7 3 9 9 8 9 13 8 5 4 4 3 4 6 5 5 6 6 7 10 19 22 20 17 17 19 22 24 25 26 25 23 22 24 23 18 15 14 18
5 6 7 7 5 7 7 8 7 8 8 8 6 3 5 6 5 6 6 6 6 6 5 5 12 16 16 17 18 19 18 18 18 18 19 21 22 22 21 19 18 17 16 17
5 7 5 7 7 10 11 11 11 10 9 2 3 5 6 8 5 8 8 7 5 5 5 8 12 16 15 16 17 16 17 19 18 17 17 16 16 15 15 18 17 16 18 20
5 4 6 7 7 10 10 10 11 10 9 6 4 7 5 4 5 5 3 5 3 7 10 8 11 13 14 14 14 16 17 16 18 19 18 17 13 15 15 16 12 12 13 12
Wind_Direction
342 344 348 344 345 335 323 318 323 13 324 319 347 356 333 315 321 333 302 282 276 294 303 290 275 132 22 351 297 222 222 237 220 206 200 213 204 205 204 214 209 239 270 242
339 340 345 346 348 353 323 338 313 20 321 13 354 338 318 312 328 338 345 315 341 309 275 274 284 38 50 1 359 357 87 222 210 203 204 200 220 198 215 217 234 214 220 218
334 334 341 344 349 350 309 309 314 13 298 160 347 335 313 325 333 329 338 342 299 313 264 239 275 307 25 343 2 327 265 253 229 218 204 205 211 213 214 212 224 230 217 236
325 329 335 342 344 345 293 316 34 7 324 338 331 306 292 301 339 342 328 80 6 351 290 266 257 307 307 264 12 326 323 231 238 257 322 274 265 216 211 221 222 228 234 222
318 320 324 332 347 329 282 308 331 209 296 266 292 295 303 304 344 332 317 326 352 328 324 310 321 327 311 321 326 330 338 226 269 251 232 234 242 232 243 243 234 233 241 249
314 313 311 311 348 13 302 304 299 270 268 288 294 301 318 309 311 302 243 324 317 305 299 296 301 294 284 284 292 303 288 289 247 231 215 251 248 229 226 231 233 240 240 249
309 304 301 299 289 178 261 264 277 247 259 268 280 293 293 293 297 271 296 307 304 318 320 296 274 253 250 256 251 239 268 238 261 263 190 238 253 218 222 227 230 230 245 253
305 302 301 295 280 224 226 248 210 232 255 276 286 287 284 287 261 266 288 301 305 301 295 286 282 217 215 224 231 223 219 257 247 237 228 282 245 162 234 231 238 232 241 246
302 301 304 300 287 264 230 230 205 224 272 228 248 308 295 291 298 284 267 297 314 297 286 258 263 264 358 198 154 211 203 226 253 221 240 234 256 248 210 273 255 230 355 254
302 305 305 303 299 283 235 219 191 197 255 252 252 230 294 311 286 277 303 320 274 225 245 254 232 246 324 265 233 165 186 213 226 229 251 251 267 86 334 205 60 16 6 351
302 304 308 306 302 291 274 205 179 187 219 244 231 252 242 257 239 257 285 288 181 260 260 274 263 275 297 285 279 252 195 204 215 233 243 237 276 311 240 11 325 330 329 331
305 309 309 307 303 299 295 235 180 189 194 255 305 258 253 250 246 254 241 271 296 304 262 204 298 246 250 279 275 197 247 263 234 232 235 262 310 304 316 318 315 316 309 310
309 313 309 309 306 308 303 168 128 128 263 273 246 243 253 226 236 232 224 227 233 253 278 299 309 273 296 266 254 260 266 275 264 272 258 268 274 276 298 315 298 300 305 301
312 313 311 313 311 314 285 159 166 126 124 266 276 193 236 236 236 229 218 240 247 257 247 236 243 245 256 271 273 273 273 284 262 261 254 263 272 276 278 288 312 306 309 304
313 313 314 318 317 11 137 117 189 201 163 288 310 291 74 152 245 222 225 230 232 226 220 235 240 261 282 261 263 262 258 257 251 256 256 259 256 258 285 292 294 297 298 300
317 315 320 318 19 144 210 149 111 192 183 306 293 10 250 156 204 208 216 218 219 217 207 240 258 261 283 262 262 260 257 251 249 257 262 270 273 271 276 281 284 285 283 281
320 323 328 117 137 98 356 26 65 151 161 267 281 286 125 354 150 210 220 214 174 192 209 235 251 241 225 254 258 265 263 269 271 268 263 255 256 262 269 278 281 281 271 265
330 19 97 114 104 120 95 61 128 148 157 274 301 285 274 56 266 216 159 173 156 195 237 248 250 215 228 255 263 277 277 260 252 250 248 259 265 269 268 264 266 258 264 266
326 147 146 165 49 56 66 109 113 57 29 348 320 302 314 359 266 291 164 127 175 207 232 245 278 280 254 283 290 285 283 233 235 234 236 239 239 246 250 250 253 252 255 277
153 201 223 78 54 119 134 157 21 24 33 77 263 301 276 303 298 295 356 137 42 290 208 223 245 261 293 338 345 348 342 356 202 218 234 238 244 210 233 238 249 254 268 289
215 36 64 44 144 247 217 38 8 337 315 178 246 249 289 171 298 330 63 41 334 329 31 19 337 355 350 349 350 4 21 29 38 214 230 244 166 212 215 195 259 177 35 340
47 85 98 136 241 13 349 19 345 326 332 317 291 310 223 281 235 284 147 329 248 39 2 6 12 350 343 352 353 360 10 29 27 30 38 107 130 201 108 81 78 67 54 60
172 152 50 28 21 33 32 348 326 316 338 337 328 322 257 226 225 268 348 17 33 9 26 32 357 339 344 350 355 1 13 18 19 26 46 55 49 49 53 48 45 56 57 50
39 35 18 30 14 12 307 312 306 296 288 302 331 328 344 3 14 358 355 16 3 36 23 13 338 343 335 343 354 4 16 24 25 22 27 34 39 45 47 45 37 41 57 71
45 33 35 20 318 336 338 327 311 336 319 298 317 297 15 27 39 17 9 16 29 26 13 319 330 338 340 344 356 6 15 28 35 40 31 30 29 41 44 35 30 28 31 41
56 43 7 354 356 360 8 353 352 347 327 258 344 14 19 40 42 17 17 353 8 351 323 319 325 344 354 357 6 13 17 20 34 33 47 44 36 36 48 46 37 27 29 36
47 30 39 7 9 358 0 356 358 334 8 23 52 45 14 15 45 31 35 339 282 292 309 354 2 352 354 6 17 16 20 20 20 26 32 50 47 48 37 39 27 54 49 45